Location: Rancho Del Sol Observatory
(38.7214°N, 120.6350°W)
Time: 13:50:27
(UTC-08:00)

A-11 Canister half - Pass Details

Date: 05 February 2020
Orbit: 1517 x 1683 km, 47.2° (Epoch: 19 February)

Event Time Altitude Azimuth Distance (km) Brightness Sun altitude
Rises 00:34:31 0° 291° (WNW) 4,736 - -67.0°
Reaches altitude 10° 00:37:44 10° 295° (WNW) 3,732 - -66.8°
Maximum altitude 00:46:56 56° 13° (NNE) 1,768 - -66.4°
Drops below altitude 10° 00:55:59 10° 91° (E) 3,675 - -65.7°
Sets 00:59:07 0° 95° (E) 4,659 - -65.5°
